Flight Track Log - Related Links

Times and Time Zones

All times are in EDT time to prevent confusion due to time zone crossing. See the AWE515 flight status page for this flight to view local times or setup timezone preferences in your user account.


Time Position Orientation Groundspeed Altitude Reporting Facility
EDT Latitude Longitude Course Direction KTS MPH feet Rate Location/Type
Mon 12:40:35 PM 33.4333 -111.9833 20° North 146 168 1,900  Level Phoenix TRACON
Mon 12:41:41 PM 33.4333 -111.9333 90° East 174 200 3,300 1,426 Climbing Phoenix TRACON
Mon 12:42:16 PM 33.4389 -111.8969 80° East 184 212 4,300 2,227 Climbing Albuquerque Center
Mon 12:43:00 PM 33.7448 -111.8628 15° North  Level FlightAware Approximate
Mon 12:43:18 PM 33.4664 -111.8258 65° Northeast 227 261 6,900  Level Albuquerque Center
Mon 12:44:00 PM 33.8501 -111.8208 20° North  Level FlightAware Approximate
Mon 12:44:20 PM 33.5369 -111.7822 27° Northeast 270 311 10,200  Level Albuquerque Center
Mon 12:45:00 PM 33.9545 -111.7752 20° North  Level FlightAware Approximate
Mon 12:45:22 PM 33.6100 -111.8319 330° Northwest 297 342 11,400  Level Albuquerque Center
Mon 12:46:24 PM 33.7089 -111.8156 North 354 407 13,300 1,984 Climbing Albuquerque Center
Mon 12:47:26 PM 33.8114 -111.7900 12° North 371 427 15,500 2,226 Climbing Albuquerque Center
Mon 12:48:28 PM 33.9139 -111.7633 12° North 379 436 17,900 2,274 Climbing Albuquerque Center
Mon 12:49:30 PM 34.0367 -111.7328 12° North 388 447 20,200 2,032 Climbing Albuquerque Center
Mon 12:50:32 PM 34.1211 -111.6506 39° Northeast 401 461 22,100 1,790 Climbing Albuquerque Center
Mon 12:51:34 PM 34.2031 -111.5583 43° Northeast 403 464 23,900 1,645 Climbing Albuquerque Center
Mon 12:52:36 PM 34.2850 -111.4653 43° Northeast 404 465 25,500 1,403 Climbing Albuquerque Center
Mon 12:53:38 PM 34.3689 -111.3697 43° Northeast 411 473 26,800 1,403 Climbing Albuquerque Center
Mon 12:54:40 PM 34.4717 -111.2511 44° Northeast 422 486 28,400 1,548 Climbing Albuquerque Center
Mon 12:55:42 PM 34.5572 -111.1519 44° Northeast 424 488 30,000 1,258 Climbing Albuquerque Center
Mon 12:56:44 PM 34.6414 -111.0547 44° Northeast 420 483 31,000 484 Climbing Albuquerque Center
Mon 12:57:46 PM 34.7253 -110.9575 44° Northeast 419 482 31,000  Level Albuquerque Center
Mon 12:58:49 PM 34.8094 -110.8592 44° Northeast 419 482 31,000  Level Albuquerque Center
Mon 12:59:50 PM 34.9078 -110.7461 43° Northeast 422 486 31,000  Level Albuquerque Center
Mon 01:00:52 PM 34.9897 -110.6528 43° Northeast 422 486 31,000  Level Albuquerque Center
Mon 01:01:54 PM 35.0842 -110.5400 44° Northeast 424 488 31,000  Level Albuquerque Center
Mon 01:02:56 PM 35.1653 -110.4444 44° Northeast 422 486 31,000  Level Albuquerque Center
Mon 01:03:58 PM 35.2600 -110.3331 44° Northeast 422 486 31,000  Level Albuquerque Center
Mon 01:05:00 PM 35.3406 -110.2381 44° Northeast 421 484 31,000  Level Albuquerque Center
Mon 01:06:02 PM 35.4347 -110.1272 44° Northeast 420 483 31,000  Level Albuquerque Center
Mon 01:07:04 PM 35.5142 -110.0300 45° Northeast 420 483 31,000  Level Albuquerque Center
Mon 01:08:06 PM 35.6083 -109.9183 44° Northeast 421 484 31,000  Level Albuquerque Center
Mon 01:09:08 PM 35.6889 -109.8211 44° Northeast 422 486 31,000  Level Albuquerque Center
Mon 01:10:10 PM 35.7681 -109.6939 52° Northeast 420 483 31,000  Level Albuquerque Center
Mon 01:11:12 PM 35.8364 -109.5836 53° Northeast 421 484 31,000  Level Albuquerque Center
Mon 01:12:14 PM 35.9056 -109.4733 52° Northeast 422 486 31,000  Level Albuquerque Center
Mon 01:13:16 PM 35.9861 -109.3453 52° Northeast 423 487 31,000  Level Albuquerque Center
Mon 01:14:18 PM 36.0550 -109.2336 53° Northeast 423 487 31,000  Level Albuquerque Center
Mon 01:15:20 PM 36.1322 -109.1097 52° Northeast 427 491 31,000  Level Albuquerque Center
Mon 01:16:22 PM 36.2067 -108.9908 52° Northeast 424 488 31,000  Level Albuquerque Center
Mon 01:17:24 PM 36.2883 -108.8583 53° Northeast 425 489 31,000  Level Albuquerque Center
Mon 01:18:35 PM 36.3689 -108.7261 53° Northeast 426 490 31,000  Level Denver Center
Mon 01:19:37 PM 36.4381 -108.6139 53° Northeast 426 490 31,000  Level Denver Center
Mon 01:20:39 PM 36.5161 -108.4822 54° Northeast 423 487 31,000  Level Denver Center
Mon 01:21:41 PM 36.5844 -108.3700 53° Northeast 425 489 31,000  Level Denver Center
Mon 01:22:43 PM 36.6639 -108.2392 53° Northeast 424 488 31,000  Level Denver Center
Mon 01:23:45 PM 36.7306 -108.1247 54° Northeast 425 489 31,000  Level Denver Center
Mon 01:24:47 PM 36.7764 -107.9942 66° East 426 490 31,000  Level Denver Center
Mon 01:25:49 PM 36.8192 -107.8375 71° East 428 493 31,000  Level Denver Center
Mon 01:26:51 PM 36.8564 -107.7025 71° East 429 494 31,000  Level Denver Center
Mon 01:27:53 PM 36.8994 -107.5458 71° East 428 493 31,000  Level Denver Center
Mon 01:28:55 PM 36.9350 -107.4103 72° East 428 493 31,000  Level Denver Center
Mon 01:29:57 PM 36.9775 -107.2514 71° East 430 495 31,000  Level Denver Center
Mon 01:30:59 PM 37.0131 -107.1150 72° East 431 496 31,000  Level Denver Center
Mon 01:32:01 PM 37.0547 -106.9567 72° East 431 496 31,000  Level Denver Center
Mon 01:33:03 PM 37.0917 -106.8219 71° East 429 494 31,000  Level Denver Center
Mon 01:34:05 PM 37.1336 -106.6636 72° East 427 491 31,000  Level Denver Center
Mon 01:35:08 PM 37.1700 -106.5267 72° East 430 495 31,000  Level Denver Center
Mon 01:36:10 PM 37.2100 -106.3667 73° East 431 496 31,000  Level Denver Center
Mon 01:37:12 PM 37.2461 -106.2314 71° East 428 493 31,000  Level Denver Center
Mon 01:38:14 PM 37.2850 -106.0711 73° East 428 493 31,000  Level Denver Center
Mon 01:39:16 PM 37.3192 -105.9317 73° East 432 497 31,000  Level Denver Center
Mon 01:40:18 PM 37.3647 -105.7992 67° East 433 498 31,000  Level Denver Center
Mon 01:41:20 PM 37.4508 -105.6689 50° Northeast 432 497 31,000  Level Denver Center
Mon 01:42:22 PM 37.5264 -105.5600 49° Northeast 430 495 31,000  Level Denver Center
Mon 01:43:24 PM 37.6169 -105.4289 49° Northeast 436 502 31,000  Level Denver Center
Mon 01:44:26 PM 37.6944 -105.3192 48° Northeast 436 502 31,000  Level Denver Center
Mon 01:45:28 PM 37.7706 -105.1792 55° Northeast 436 502 31,000  Level Denver Center
Mon 01:46:30 PM 37.8197 -105.0467 65° Northeast 436 502 31,000  Level Denver Center
Mon 01:47:32 PM 37.8806 -104.8919 63° Northeast 438 504 31,000  Level Denver Center
Mon 01:48:34 PM 37.9314 -104.7592 64° Northeast 437 503 31,000  Level Denver Center
Mon 01:49:36 PM 37.9814 -104.6267 64° Northeast 435 501 31,000  Level Denver Center
Mon 01:50:38 PM 38.0403 -104.4706 64° Northeast 437 503 31,000  Level Denver Center
Mon 01:51:40 PM 38.0911 -104.3367 64° Northeast 438 504 31,000  Level Denver Center
Mon 01:52:42 PM 38.1506 -104.1806 64° Northeast 437 503 31,000  Level Denver Center
Mon 01:53:44 PM 38.1994 -104.0453 65° Northeast 437 503 31,000  Level Denver Center
Mon 01:54:46 PM 38.2569 -103.8897 65° Northeast 434 499 31,000  Level Denver Center
Mon 01:55:48 PM 38.3075 -103.7564 64° Northeast 434 499 31,000  Level Denver Center
Mon 01:56:50 PM 38.3556 -103.6217 66° East 436 502 31,000  Level Denver Center
Mon 01:57:52 PM 38.4139 -103.4658 64° Northeast 437 503 31,000  Level Denver Center
Mon 01:58:54 PM 38.4650 -103.3244 65° Northeast 432 497 31,000  Level Denver Center
Mon 01:59:56 PM 38.5133 -103.1908 65° Northeast 432 497 31,000  Level Denver Center
Mon 02:00:58 PM 38.5658 -103.0425 66° East 432 497 31,000  Level Denver Center
Mon 02:02:00 PM 38.6225 -102.8881 65° Northeast 430 495 31,000  Level Denver Center
Mon 02:03:02 PM 38.6722 -102.7464 66° East 428 493 31,000  Level Denver Center
Mon 02:04:04 PM 38.7203 -102.6125 65° Northeast 432 497 31,000  Level Denver Center
Mon 02:05:06 PM 38.7758 -102.4567 65° Northeast 432 497 31,000  Level Denver Center
Mon 02:06:08 PM 38.8233 -102.3208 66° East 435 501 31,000  Level Denver Center
Mon 02:07:10 PM 38.8783 -102.1633 66° East 434 499 31,000  Level Denver Center
Mon 02:08:12 PM 38.9264 -102.0286 65° Northeast 433 498 31,000  Level Denver Center
Mon 02:09:14 PM 38.9803 -101.8711 66° East 431 496 31,000  Level Denver Center
Mon 02:10:16 PM 39.0275 -101.7342 66° East 435 501 31,000  Level Denver Center
Mon 02:11:18 PM 39.0758 -101.5950 66° East 433 498 31,000  Level Denver Center
Mon 02:12:20 PM 39.1300 -101.4372 66° East 433 498 31,000  Level Denver Center
Mon 02:13:22 PM 39.1756 -101.3006 67° East 434 499 31,000  Level Denver Center
Mon 02:14:24 PM 39.2297 -101.1428 66° East 432 497 31,000  Level Denver Center
Mon 02:15:26 PM 39.2747 -101.0067 67° East 432 497 31,000  Level Denver Center
Mon 02:16:28 PM 39.3281 -100.8500 66° East 428 493 31,000  Level Denver Center
Mon 02:17:30 PM 39.3739 -100.7125 67° East 433 498 31,000  Level Denver Center
Mon 02:18:32 PM 39.4264 -100.5508 67° East 437 503 31,000  Level Denver Center
Mon 02:19:34 PM 39.4717 -100.4142 67° East 434 499 31,000  Level Denver Center
Mon 02:20:35 PM 39.5172 -100.2753 67° East 437 503 31,000  Level Denver Center
Mon 02:21:37 PM 39.5694 -100.1142 67° East 436 502 31,000  Level Denver Center
Mon 02:22:39 PM 39.6147 -99.9758 67° East 436 502 31,000  Level Denver Center
Mon 02:23:41 PM 39.6622 -99.8289 67° East 434 499 31,000  Level Denver Center
Mon 02:24:43 PM 39.7092 -99.6836 67° East 435 501 31,000  Level Denver Center
Mon 02:25:45 PM 39.7650 -99.5094 67° East 436 502 31,000  Level Denver Center
Mon 02:26:47 PM 39.8103 -99.3636 68° East 436 502 31,000  Level Denver Center
Mon 02:27:49 PM 39.8569 -99.2181 67° East 436 502 31,000  Level Denver Center
Mon 02:28:50 PM 39.9022 -99.0717 68° East 436 502 31,000  Level Denver Center
Mon 02:29:52 PM 39.9481 -98.9264 68° East 435 501 31,000  Level Denver Center
Mon 02:30:34 PM 39.9847 -98.8108 67° East 436 502 31,000  Level Minneapolis Center
Mon 02:31:36 PM 40.0297 -98.6650 68° East 435 501 31,000  Level Minneapolis Center
Mon 02:32:38 PM 40.0744 -98.5175 68° East 437 503 31,000  Level Minneapolis Center
Mon 02:33:40 PM 40.1192 -98.3692 68° East 439 505 31,000  Level Minneapolis Center
Mon 02:34:42 PM 40.1647 -98.2217 68° East 440 506 31,000  Level Minneapolis Center
Mon 02:35:44 PM 40.2186 -98.0444 68° East 439 505 31,000  Level Minneapolis Center
Mon 02:36:46 PM 40.2622 -97.8958 69° East 439 505 31,000  Level Minneapolis Center
Mon 02:37:48 PM 40.3072 -97.7483 68° East 438 504 31,000  Level Minneapolis Center
Mon 02:38:51 PM 40.3503 -97.6000 69° East 439 505 31,000  Level Minneapolis Center
Mon 02:39:53 PM 40.3958 -97.4514 68° East 440 506 31,000  Level Minneapolis Center
Mon 02:40:55 PM 40.4417 -97.2911 69° East 440 506 31,000  Level Minneapolis Center
Mon 02:41:57 PM 40.4850 -97.1417 69° East 440 506 31,000  Level Minneapolis Center
Mon 02:43:00 PM 40.5286 -96.9919 69° East 440 506 31,000  Level Minneapolis Center
Mon 02:44:02 PM 40.5800 -96.8114 69° East 440 506 31,000  Level Minneapolis Center
Mon 02:45:04 PM 40.6247 -96.6622 68° East 440 506 31,000  Level Minneapolis Center
Mon 02:46:06 PM 40.6675 -96.5097 70° East 444 511 31,000  Level Minneapolis Center
Mon 02:47:08 PM 40.7106 -96.3594 69° East 441 507 31,000  Level Minneapolis Center
Mon 02:48:10 PM 40.7528 -96.2092 70° East 440 506 31,000  Level Minneapolis Center
Mon 02:49:12 PM 40.8042 -96.0286 69° East 441 507 31,000  Level Minneapolis Center
Mon 02:50:14 PM 40.8453 -95.8783 70° East 439 505 31,000  Level Minneapolis Center
Mon 02:51:16 PM 40.8864 -95.7278 70° East 439 505 31,000  Level Minneapolis Center
Mon 02:52:18 PM 40.9294 -95.5769 69° East 440 506 31,000 -242 Level Minneapolis Center
Mon 02:53:20 PM 40.9711 -95.4247 70° East 442 509 30,500 -726 Descending Minneapolis Center
Mon 02:54:22 PM 41.0119 -95.2717 70° East 443 510 29,500 -1,065 Descending Minneapolis Center
Mon 02:55:24 PM 41.0619 -95.0872 70° East 444 511 28,300 -1,742 Descending Minneapolis Center
Mon 02:56:26 PM 41.1044 -94.9317 70° East 447 514 25,900 -2,029 Descending Minneapolis Center
Mon 02:57:40 PM 41.1467 -94.7803 70° East 444 511 23,700 -2,400 Descending Minneapolis Center
Mon 02:58:41 PM 41.1994 -94.5831 70° East 411 473 20,500 -3,087 Descending Minneapolis Center
Mon 02:59:23 PM 41.2261 -94.4842 70° East 411 473 18,400 -2,762 Descending Minneapolis Center
Mon 02:59:44 PM 41.2308 -94.4469 80° East 413 475 17,600 -2,754 Descending Minneapolis Center
Mon 03:00:24 PM 41.2633 -94.3375 68° East 413 475 15,600 -2,903 Descending Minneapolis Center
Mon 03:00:46 PM 41.2747 -94.2956 70° East 407 468 14,600 -2,951 Descending Minneapolis Center
Mon 03:01:25 PM 41.3311 -94.2264 43° Northeast 394 453 12,600 -3,000 Descending Minneapolis Center
Mon 03:01:48 PM 41.3531 -94.1944 48° Northeast 392 451 11,500 -2,164 Descending Minneapolis Center
Mon 03:02:26 PM 41.4036 -94.1233 47° Northeast 380 437 10,400 -1,355 Descending Minneapolis Center
Mon 03:02:50 PM 41.4206 -94.0978 49° Northeast 354 407 10,100 -1,000 Descending Minneapolis Center
Mon 03:03:26 PM 41.4600 -94.0408 47° Northeast 307 353 9,400 -1,935 Descending Minneapolis Center
Mon 03:03:52 PM 41.4789 -94.0117 49° Northeast 291 335 8,100 -2,073 Descending Minneapolis Center
Mon 03:04:21 PM 41.5106 -93.9669 47° Northeast 288 331 7,500 -1,258 Descending Minneapolis Center
Mon 03:04:54 PM 41.5317 -93.9367 47° Northeast 279 321 6,800 -1,500 Descending Minneapolis Center
Mon 03:05:21 PM 41.5617 -93.8983 44° Northeast 267 307 6,000 -1,869 Descending Minneapolis Center
Mon 03:05:55 PM 41.5861 -93.8700 41° Northeast 251 289 4,900 -1,475 Descending Minneapolis Center
Mon 03:06:22 PM 41.6128 -93.8381 42° Northeast 247 284 4,500 -1,161 Descending Minneapolis Center
Mon 03:06:57 PM 41.6356 -93.8153 37° Northeast 230 265 3,700 -1,377 Descending Minneapolis Center
Mon 03:07:23 PM 41.6475 -93.7819 64° Northeast 207 238 3,100 -1,385 Descending Minneapolis Center

Login

Don't have an account? Register now (free) for customized features, flight alerts, and more!